| time (UTC) | temp C | wind direction | speed KPH | gust KPH | rain 1hr cm | rain 24hr cm | rain mn cm | humidity % | barometer mb |
| 20260901023516 | 22 | 0.0 | 0.0 | 0.00 | 0.00 | 0.00 | 86 | 1012.6 | |
| 20260901022516 | 22 | 0.0 | 0.0 | 0.00 | 0.00 | 0.00 | 84 | 1012.7 | |
| 20260901021516 | 22 | 0.0 | 0.0 | 0.00 | 0.00 | 0.00 | 82 | 1012.5 | |
| 20260901020516 | 22 | 0.0 | 0.0 | 0.00 | 0.00 | 0.00 | 83 | 1012.4 | |
| 20260901015537 | 22 | 0.0 | 0.0 | 0.00 | 0.00 | 0.00 | 84 | 1012.4 | |
| 20260901014516 | 23 | 0.0 | 0.0 | 0.00 | 0.00 | 0.00 | 82 | 1012.6 | |
| 20260901013516 | 23 | 0.0 | 0.0 | 0.00 | 0.00 | 0.00 | 78 | 1012.5 | |
| 20260901012517 | 24 | 0.0 | 0.0 | 0.00 | 0.00 | 0.00 | 76 | 1012.4 | |
| 20260901011557 | 25 | 0.0 | 0.0 | 0.00 | 0.00 | 0.00 | 73 | 1012.3 | |
| 20260901010517 | 25 | 0.0 | 0.0 | 0.00 | 0.00 | 0.00 | 72 | 1012.4 | |
| 20260901005516 | 26 | 0.0 | 3.2 | 0.00 | 0.00 | 0.00 | 71 | 1012.2 | |
| 20260901004517 | 26 | 0.0 | 0.0 | 0.00 | 0.00 | 0.00 | 69 | 1012.3 | |
| 20260901003517 | 26 | 0.0 | 0.0 | 0.00 | 0.00 | 0.00 | 67 | 1012.3 | |
| 20260901002516 | 27 | 0.0 | 0.0 | 0.00 | 0.00 | 0.00 | 65 | 1012.4 | |
| 20260901001517 | 27 | 23 | 1.6 | 6.4 | 0.00 | 0.00 | 0.00 | 64 | 1012.2 |
| 20260901000516 | 27 | 23 | 1.6 | 4.8 | 0.00 | 0.00 | 0.00 | 63 | 1012.4 |
| 20260831235516 | 27 | 0.0 | 0.0 | 0.00 | 0.00 | 0.00 | 63 | 1012.3 | |
| 20260831234516 | 28 | 23 | 3.2 | 8.0 | 0.00 | 0.00 | 0.00 | 59 | 1012.2 |
| 20260831233516 | 28 | 135 | 3.2 | 4.8 | 0.00 | 0.00 | 0.00 | 57 | 1012.3 |
| 20260831232516 | 29 | 23 | 3.2 | 9.7 | 0.00 | 0.00 | 0.00 | 55 | 1012.3 |
| 20260831231536 | 29 | 0 | 1.6 | 3.2 | 0.00 | 0.00 | 0.00 | 56 | 1012.3 |
| 20260831230516 | 29 | 0 | 4.8 | 11.3 | 0.00 | 0.00 | 0.00 | 52 | 1012.3 |
| 20260831225516 | 30 | 0 | 4.8 | 12.9 | 0.00 | 0.00 | 0.00 | 48 | 1012.2 |
| 20260831224517 | 30 | 158 | 3.2 | 11.3 | 0.00 | 0.00 | 0.00 | 51 | 1012.3 |
| 20260831223517 | 30 | 135 | 4.8 | 9.7 | 0.00 | 0.00 | 0.00 | 50 | 1012.3 |
| 20260831222517 | 30 | 135 | 3.2 | 6.4 | 0.00 | 0.00 | 0.00 | 47 | 1012.1 |
| 20260831221516 | 30 | 158 | 3.2 | 8.0 | 0.00 | 0.00 | 0.00 | 46 | 1012.1 |
| 20260831220516 | 30 | 0 | 4.8 | 11.3 | 0.00 | 0.00 | 0.00 | 48 | 1012.2 |
| 20260831215516 | 30 | 0 | 8.0 | 14.5 | 0.00 | 0.00 | 0.00 | 48 | 1012.1 |
| 20260831214516 | 31 | 23 | 6.4 | 12.9 | 0.00 | 0.00 | 0.00 | 49 | 1012.2 |
| 20260831213516 | 31 | 0 | 3.2 | 6.4 | 0.00 | 0.00 | 0.00 | 48 | 1012.1 |
| 20260831212516 | 31 | 135 | 1.6 | 6.4 | 0.00 | 0.00 | 0.00 | 49 | 1011.9 |
| 20260831211516 | 31 | 0 | 3.2 | 8.0 | 0.00 | 0.00 | 0.00 | 50 | 1012.0 |
| 20260831210516 | 31 | 0 | 4.8 | 11.3 | 0.00 | 0.00 | 0.00 | 49 | 1012.0 |
| 20260831205519 | 31 | 135 | 3.2 | 8.0 | 0.00 | 0.00 | 0.00 | 50 | 1011.9 |
| 20260831204517 | 31 | 135 | 4.8 | 12.9 | 0.00 | 0.00 | 0.00 | 48 | 1011.9 |
| 20260831203517 | 31 | 0 | 3.2 | 8.0 | 0.00 | 0.00 | 0.00 | 49 | 1011.8 |
| 20260831202516 | 31 | 135 | 4.8 | 11.3 | 0.00 | 0.00 | 0.00 | 50 | 1011.8 |
| 20260831201536 | 31 | 0 | 4.8 | 11.3 | 0.00 | 0.00 | 0.00 | 50 | 1011.9 |
| 20260831200516 | 31 | 113 | 3.2 | 8.0 | 0.00 | 0.00 | 0.00 | 52 | 1011.6 |
| 20260831195516 | 30 | 23 | 4.8 | 17.7 | 0.00 | 0.00 | 0.00 | 52 | 1011.5 |
| 20260831194516 | 30 | 0 | 4.8 | 14.5 | 0.00 | 0.00 | 0.00 | 52 | 1011.6 |
| 20260831193516 | 30 | 0 | 6.4 | 16.1 | 0.00 | 0.00 | 0.00 | 52 | 1011.6 |
| 20260831192536 | 30 | 0 | 6.4 | 16.1 | 0.00 | 0.00 | 0.00 | 51 | 1011.6 |
| 20260831191516 | 30 | 23 | 6.4 | 17.7 | 0.00 | 0.00 | 0.00 | 55 | 1011.6 |
| 20260831190516 | 30 | 135 | 3.2 | 8.0 | 0.00 | 0.00 | 0.00 | 56 | 1011.7 |
| 20260831185517 | 29 | 0 | 4.8 | 11.3 | 0.00 | 0.00 | 0.00 | 56 | 1011.6 |
| 20260831184517 | 29 | 0 | 6.4 | 14.5 | 0.00 | 0.00 | 0.00 | 57 | 1011.7 |
| 20260831183537 | 29 | 23 | 6.4 | 14.5 | 0.00 | 0.00 | 0.00 | 63 | 1011.7 |
| 20260831182516 | 29 | 135 | 4.8 | 16.1 | 0.00 | 0.00 | 0.00 | 67 | 1011.8 |
| 20260831181516 | 28 | 135 | 6.4 | 19.3 | 0.00 | 0.00 | 0.00 | 68 | 1011.7 |
| 20260831180516 | 28 | 135 | 4.8 | 11.3 | 0.00 | 0.00 | 0.00 | 68 | 1011.6 |
| 20260831175516 | 28 | 158 | 6.4 | 12.9 | 0.00 | 0.00 | 0.00 | 70 | 1011.6 |
| 20260831174516 | 28 | 135 | 4.8 | 9.7 | 0.00 | 0.00 | 0.00 | 72 | 1011.7 |
| 20260831173516 | 28 | 158 | 3.2 | 11.3 | 0.00 | 0.00 | 0.00 | 73 | 1011.9 |
| 20260831172516 | 27 | 23 | 4.8 | 12.9 | 0.00 | 0.00 | 0.00 | 73 | 1011.9 |
| 20260831171537 | 27 | 135 | 1.6 | 6.4 | 0.00 | 0.00 | 0.00 | 79 | 1011.9 |
| 20260831170516 | 26 | 158 | 3.2 | 11.3 | 0.00 | 0.00 | 0.00 | 80 | 1011.9 |
| 20260831165516 | 26 | 135 | 3.2 | 11.3 | 0.00 | 0.00 | 0.00 | 82 | 1012.0 |
| 20260831164516 | 26 | 158 | 3.2 | 6.4 | 0.00 | 0.00 | 0.00 | 82 | 1011.8 |
| 20260831163517 | 26 | 135 | 3.2 | 11.3 | 0.00 | 0.00 | 0.00 | 83 | 1011.9 |
| 20260831162516 | 26 | 135 | 4.8 | 12.9 | 0.00 | 0.00 | 0.00 | 81 | 1011.7 |
| 20260831161518 | 26 | 0 | 4.8 | 12.9 | 0.00 | 0.00 | 0.00 | 82 | 1011.8 |
| 20260831160536 | 26 | 135 | 3.2 | 6.4 | 0.00 | 0.00 | 0.00 | 84 | 1011.6 |
| 20260831155516 | 26 | 158 | 4.8 | 14.5 | 0.00 | 0.00 | 0.00 | 84 | 1011.5 |
| 20260831154516 | 26 | 135 | 6.4 | 12.9 | 0.00 | 0.00 | 0.00 | 84 | 1011.3 |
| 20260831153516 | 25 | 135 | 3.2 | 12.9 | 0.00 | 0.00 | 0.00 | 86 | 1011.1 |
| 20260831152516 | 25 | 135 | 3.2 | 8.0 | 0.00 | 0.00 | 0.00 | 87 | 1011.0 |
| 20260831151536 | 25 | 135 | 4.8 | 8.0 | 0.00 | 0.00 | 0.00 | 89 | 1010.9 |
| 20260831150515 | 25 | 158 | 8.0 | 14.5 | 0.00 | 0.00 | 0.00 | 89 | 1010.6 |
| 20260831145516 | 25 | 135 | 3.2 | 8.0 | 0.00 | 0.00 | 0.00 | 90 | 1010.6 |
| 20260831144556 | 24 | 0 | 3.2 | 9.7 | 0.00 | 0.00 | 0.00 | 92 | 1010.6 |
| 20260831143516 | 23 | 23 | 3.2 | 8.0 | 0.00 | 0.00 | 0.00 | 92 | 1010.4 |
| 20260831142516 | 23 | 23 | 3.2 | 11.3 | 0.00 | 0.00 | 0.00 | 92 | 1010.3 |
| 20260831141515 | 23 | 158 | 3.2 | 11.3 | 0.00 | 0.00 | 0.00 | 93 | 1010.5 |
| 20260831140516 | 23 | 135 | 3.2 | 6.4 | 0.00 | 0.00 | 0.00 | 93 | 1010.7 |
| 20260831135516 | 23 | 135 | 3.2 | 8.0 | 0.00 | 0.00 | 0.00 | 93 | 1010.6 |
| 20260831134536 | 23 | 135 | 3.2 | 6.4 | 0.00 | 0.00 | 0.00 | 93 | 1010.3 |
| 20260831133516 | 23 | 135 | 3.2 | 11.3 | 0.00 | 0.00 | 0.00 | 93 | 1010.0 |
| 20260831132516 | 22 | 135 | 1.6 | 6.4 | 0.00 | 0.00 | 0.00 | 93 | 1009.7 |
| 20260831131516 | 22 | 0.0 | 0.0 | 0.00 | 0.00 | 0.00 | 93 | 1009.6 | |
| 20260831130515 | 22 | 135 | 1.6 | 6.4 | 0.00 | 0.00 | 0.00 | 94 | 1009.5 |
| 20260831125515 | 22 | 113 | 1.6 | 4.8 | 0.00 | 0.00 | 0.00 | 94 | 1009.4 |
| 20260831124536 | 21 | 0.0 | 3.2 | 0.00 | 0.00 | 0.00 | 95 | 1009.3 | |
| 20260831123516 | 21 | 0.0 | 0.0 | 0.00 | 0.00 | 0.00 | 95 | 1009.0 | |
| 20260831122515 | 21 | 0.0 | 0.0 | 0.00 | 0.00 | 0.00 | 96 | 1008.8 | |
| 20260831121516 | 21 | 0.0 | 0.0 | 0.00 | 0.00 | 0.00 | 96 | 1008.6 | |
| 20260831120538 | 21 | 0.0 | 0.0 | 0.00 | 0.00 | 0.00 | 97 | 1008.5 | |
| 20260831115516 | 21 | 0.0 | 0.0 | 0.00 | 0.00 | 0.00 | 97 | 1008.5 | |
| 20260831114518 | 21 | 90 | 1.6 | 3.2 | 0.00 | 0.00 | 0.00 | 96 | 1008.4 |
| 20260831113516 | 21 | 0.0 | 1.6 | 0.00 | 0.00 | 0.00 | 96 | 1008.4 | |
| 20260831112518 | 21 | 0.0 | 4.8 | 0.00 | 0.00 | 0.00 | 96 | 1008.4 | |
| 20260831111516 | 21 | 0.0 | 0.0 | 0.00 | 0.00 | 0.00 | 96 | 1008.4 | |
| 20260831110538 | 21 | 0.0 | 0.0 | 0.00 | 0.00 | 0.00 | 96 | 1008.3 | |
| 20260831105538 | 21 | 0.0 | 0.0 | 0.00 | 0.00 | 0.00 | 96 | 1007.8 | |
| 20260831104516 | 21 | 0.0 | 0.0 | 0.00 | 0.00 | 0.00 | 96 | 1008.1 | |
| 20260831103518 | 21 | 0.0 | 0.0 | 0.00 | 0.00 | 0.00 | 96 | 1007.8 | |
| 20260831102538 | 21 | 0.0 | 0.0 | 0.00 | 0.00 | 0.00 | 97 | 1007.4 | |
| 20260831101518 | 21 | 90 | 1.6 | 6.4 | 0.00 | 0.00 | 0.00 | 96 | 1007.4 |
| 20260831100518 | 21 | 90 | 1.6 | 4.8 | 0.00 | 0.00 | 0.00 | 96 | 1007.2 |
| 20260831095518 | 21 | 90 | 3.2 | 6.4 | 0.00 | 0.00 | 0.00 | 97 | 1007.6 |
| 20260831094519 | 21 | 90 | 1.6 | 4.8 | 0.00 | 0.00 | 0.00 | 96 | 1007.7 |
| 20260831093538 | 21 | 90 | 3.2 | 6.4 | 0.00 | 0.00 | 0.00 | 96 | 1007.8 |
| 20260831092518 | 21 | 90 | 4.8 | 11.3 | 0.00 | 0.00 | 0.00 | 96 | 1007.6 |
| 20260831091518 | 21 | 90 | 4.8 | 9.7 | 0.00 | 0.00 | 0.00 | 96 | 1007.6 |
| 20260831090519 | 21 | 90 | 6.4 | 11.3 | 0.00 | 0.00 | 0.00 | 96 | 1007.7 |
| 20260831085518 | 21 | 90 | 4.8 | 9.7 | 0.00 | 0.00 | 0.00 | 96 | 1007.7 |
| 20260831084517 | 21 | 90 | 6.4 | 9.7 | 0.00 | 0.00 | 0.00 | 96 | 1007.7 |
| 20260831083538 | 21 | 90 | 6.4 | 11.3 | 0.00 | 0.00 | 0.00 | 96 | 1007.6 |
| 20260831082518 | 21 | 90 | 4.8 | 9.7 | 0.00 | 0.00 | 0.00 | 96 | 1007.6 |
| 20260831081518 | 21 | 90 | 4.8 | 9.7 | 0.00 | 0.00 | 0.00 | 96 | 1007.3 |
| 20260831080517 | 22 | 90 | 4.8 | 9.7 | 0.00 | 0.00 | 0.00 | 96 | 1007.4 |
| 20260831075518 | 22 | 90 | 4.8 | 9.7 | 0.00 | 0.00 | 0.00 | 96 | 1007.6 |
| 20260831074517 | 22 | 68 | 4.8 | 11.3 | 0.00 | 0.00 | 0.00 | 96 | 1007.6 |
| 20260831073517 | 22 | 90 | 3.2 | 4.8 | 0.00 | 0.00 | 0.00 | 96 | 1007.5 |
| 20260831072518 | 22 | 90 | 1.6 | 6.4 | 0.00 | 0.00 | 0.00 | 96 | 1007.5 |
| 20260831071518 | 22 | 90 | 3.2 | 4.8 | 0.00 | 0.00 | 0.00 | 96 | 1007.5 |
| 20260831070518 | 22 | 90 | 4.8 | 9.7 | 0.00 | 0.00 | 0.00 | 95 | 1007.6 |
| 20260831065518 | 22 | 90 | 4.8 | 9.7 | 0.00 | 0.00 | 0.00 | 95 | 1007.6 |
| 20260831064517 | 22 | 90 | 4.8 | 11.3 | 0.00 | 0.00 | 0.00 | 95 | 1007.6 |
| 20260831063519 | 22 | 68 | 3.2 | 8.0 | 0.00 | 0.00 | 0.00 | 95 | 1007.5 |
| 20260831062518 | 22 | 68 | 3.2 | 6.4 | 0.00 | 0.00 | 0.00 | 95 | 1007.7 |
| 20260831061517 | 22 | 90 | 3.2 | 9.7 | 0.00 | 0.00 | 0.00 | 95 | 1007.7 |
| 20260831060537 | 22 | 68 | 3.2 | 8.0 | 0.00 | 0.00 | 0.00 | 95 | 1007.9 |
| 20260831055517 | 22 | 90 | 3.2 | 9.7 | 0.00 | 0.00 | 0.00 | 94 | 1007.8 |
| 20260831054537 | 22 | 90 | 4.8 | 11.3 | 0.00 | 0.00 | 0.00 | 94 | 1007.8 |
| 20260831053517 | 23 | 90 | 4.8 | 12.9 | 0.00 | 0.00 | 0.00 | 94 | 1007.9 |
| 20260831052517 | 23 | 90 | 4.8 | 11.3 | 0.00 | 0.00 | 0.00 | 94 | 1008.0 |
| 20260831051537 | 23 | 90 | 6.4 | 14.5 | 0.00 | 0.00 | 0.00 | 94 | 1008.0 |
| 20260831050537 | 23 | 68 | 4.8 | 14.5 | 0.00 | 0.00 | 0.00 | 93 | 1008.0 |
| 20260831045517 | 23 | 90 | 4.8 | 12.9 | 0.00 | 0.00 | 0.00 | 93 | 1008.1 |
| 20260831044518 | 23 | 90 | 6.4 | 12.9 | 0.00 | 0.00 | 0.00 | 92 | 1008.0 |
| 20260831043518 | 23 | 90 | 9.7 | 19.3 | 0.00 | 0.00 | 0.00 | 92 | 1008.0 |
| 20260831042518 | 23 | 90 | 6.4 | 17.7 | 0.00 | 0.00 | 0.00 | 92 | 1007.9 |
| 20260831041539 | 23 | 90 | 6.4 | 12.9 | 0.00 | 0.00 | 0.00 | 92 | 1007.9 |
| 20260831040517 | 23 | 90 | 6.4 | 14.5 | 0.00 | 0.00 | 0.00 | 91 | 1007.8 |
| 20260831035518 | 23 | 90 | 4.8 | 11.3 | 0.00 | 0.00 | 0.00 | 91 | 1007.7 |
| 20260831034538 | 23 | 90 | 6.4 | 16.1 | 0.00 | 0.00 | 0.00 | 91 | 1007.6 |
| 20260831033518 | 23 | 90 | 4.8 | 19.3 | 0.00 | 0.00 | 0.00 | 90 | 1007.4 |
| 20260831032518 | 23 | 90 | 6.4 | 12.9 | 0.00 | 0.00 | 0.00 | 90 | 1007.5 |
| 20260831031518 | 23 | 90 | 9.7 | 24.1 | 0.00 | 0.00 | 0.00 | 90 | 1007.5 |
| 20260831030518 | 24 | 90 | 8.0 | 14.5 | 0.00 | 0.00 | 0.00 | 89 | 1007.4 |
| 20260831025517 | 24 | 90 | 8.0 | 20.9 | 0.00 | 0.00 | 0.00 | 89 | 1007.4 |
| 20260831024517 | 24 | 90 | 6.4 | 14.5 | 0.00 | 0.00 | 0.00 | 88 | 1007.5 |